TIME,DELAY(SENSOR),PRES,OXYGEN,RAWTEMP,T(OPTODE),TCPHASE,FLUOR,BETA(BETA700),BETA(BETA412),BETA(BETA440),CDOM,C(CSC),ED(ED412.40),ED(ED444.00),ED(ED489.70),ED(ED554.30),LU(LU411.80),LU(LU443.40),LU(LU489.60),LU(LU554.10),COMP,TILTX,TILTY,CHECK
1345867231,5805,863.8900146484375000,46.5491790771484400,663.1710815429688000,4.5235180854797360,54.0726394653320300,53,99,92,79,82,15315,2147757549,2147422464,2148005942,2147873938,2147640795,2147062454,2148256731,2147198473,1655,4,13,9450
1345870827,5811,958.1500244140625000,49.8338088989257800,669.9890747070312000,4.2985548973083500,53.6957397460937500,53,98,87,79,81,15316,2147754486,2147418944,2148007378,2147874971,2147641572,2147063177,2148256411,2147202331,3053,5,13,3838
1345874427,5807,965.1400146484375000,49.8852691650390600,670.7230834960938000,4.2743091583251950,53.6976203918457000,52,101,83,79,81,15313,2147757202,2147424960,2148008649,2147875574,2147643136,2147064045,2148261037,2147198656,3511,4,13,59378
1345878027,5808,989.5100097656250000,50.6951904296875000,673.6115722656250000,4.1788182258605960,53.6180114746093750,53,99,88,79,82,15308,2147758518,2147421248,2148009124,2147872118,2147645677,2147060662,2148257261,2147198866,384,4,13,30633
1345881627,5803,993.5800170898438000,50.1016006469726560,676.7172241210938000,4.0760478973388670,53.7427902221679700,52,99,86,80,82,15309,2147760155,2147422985,2148010569,2147874715,2147643904,2147059721,2148260571,2147195849,730,5,13,61306
1345885227,5811,993.3900146484375000,49.5399284362793000,676.5618896484375000,4.0811882019042970,53.8162117004394500,52,98,86,78,82,15311,2147759744,2147423515,2148010944,2147874688,2147646464,2147064841,2148261595,2147200256,286,5,13,53815
1345888827,5807,994.4500122070312000,50.0448913574218750,678.1677246093750000,4.0280079841613770,53.7672615051269500,53,100,86,78,82,15306,2147759040,2147423213,2148011510,2147876452,2147646528,2147063890,2148267392,2147199789,132,5,13,3194
1345892427,5810,997.6300048828125000,50.0469207763671900,678.4456176757812000,4.0188012123107910,53.7681617736816400,52,101,89,79,81,15307,2147764461,2147423378,2148008475,2147876041,2147648960,2147063497,2148261988,2147200685,332,5,13,24559
1345896027,5808,995.9199829101562000,50.1661109924316400,678.6320190429688000,4.0126252174377440,53.7560691833496100,52,97,89,78,82,15303,2147759579,2147420525,2148013046,2147875328,2147641408,2147065828,2148267931,2147199350,3592,4,13,24018
1345899627,5808,999.3300170898438000,50.2360687255859400,679.2929077148438000,3.9907250404357910,53.7531890869140600,52,98,87,78,82,15306,2147762971,2147421037,2148007149,2147876662,2147642148,2147066925,2148265563,2147199497,28,5,13,992
1345903227,5810,995.9699707031250000,50.4820594787597660,678.7943725585938000,4.0072441101074220,53.7173309326171900,53,98,88,80,82,15308,2147762560,2147423780,2148006308,2147874404,2147644443,2147063926,2148265234,2147199451,923,5,13,9389
1345906827,5807,1009.8099975585938000,50.1465911865234400,678.4367065429688000,4.0190958976745605,53.7589607238769500,53,98,85,79,82,15306,2147760877,2147421778,2148009819,2147874404,2147645357,2147061138,2148262208,2147198226,615,4,13,19139
1345910427,5808,1012.9899902343750000,49.4812316894531250,677.2562866210938000,4.0581932067871090,53.8317108154296900,52,98,91,79,81,15301,2147761920,2147419666,2148007460,2147874797,2147644032,2147069915,2148257938,2147200850,448,5,13,20662
1345914027,5811,1017.2299804687500000,49.4121284484863300,676.0128784179688000,4.0993609428405760,53.8260002136230500,52,100,89,77,82,15304,2147759881,2147421897,2148008155,2147873042,2147642148,2147055195,2148262299,2147195675,3104,4,13,29348
1345917627,5808,1011.5900268554688000,49.1883392333984400,676.1093750000000000,4.0961689949035645,53.8594589233398440,53,99,89,79,82,15297,2147760996,2147419830,2148007680,2147873554,2147646427,2147062674,2148263780,2147200082,3558,5,13,13229
1345921227,5809,1000.3699951171875000,49.3728599548339840,678.2985839843750000,4.0236721038818360,53.8597908020019500,53,98,88,78,82,15303,2147763840,2147421092,2148010450,2147873517,2147644224,2147063661,2148263981,2147199826,224,5,13,19339
1345924827,5810,1005.2600097656250000,49.8759689331054700,679.0858154296875000,3.9975891113281250,53.8052482604980500,53,187,88,79,81,15304,2147759872,2147421266,2148008256,2147875501,2147646500,2147064466,2148260205,2147201481,387,4,13,40934
1345928427,5809,1001.7399902343750000,49.7438888549804700,678.9774169921875000,4.0011811256408690,53.8159294128418000,52,101,86,79,80,15299,2147760667,2147421604,2148008237,2147872768,2147646857,2147055424,2148262281,2147196937,3276,5,13,51034
1345932027,5810,1005.3800048828125000,49.7612190246582000,679.1215209960938000,3.9964070320129395,53.8140983581543000,51,96,86,79,83,15299,2147759899,2147420443,2148007515,2147874806,2147645412,2147060589,2148258368,2147198427,3399,5,13,29589
1345935627,5805,1010.0300292968750000,50.2304801940918000,678.7860107421875000,4.0075230598449710,53.7463302612304700,52,97,84,79,81,15294,2147758482,2147423058,2148009764,2147876617,2147645860,2147064896,2148262189,2147197467,3361,5,13,28066
1345939227,5812,1000.6300048828125000,50.5935401916503900,679.9306030273438000,3.9695889949798584,53.7129402160644500,52,99,89,80,82,15292,2147761152,2147422409,2148009060,2147873353,2147645330,2147060973,2148262235,2147200914,25,5,13,8507
1345942827,5810,997.1799926757812000,52.6524505615234400,680.6102294921875000,3.9470620155334473,53.4414482116699200,52,98,89,79,80,15298,2147761124,2147420205,2148006308,2147873380,2147647414,2147057344,2148263158,2147198637,714,4,13,11521
1345946427,5809,1011.7299804687500000,50.7441291809082000,679.2341918945312000,3.9926700592041016,53.6887702941894500,52,100,90,79,82,15302,2147759862,2147421339,2148008073,2147872420,2147642962,2147060242,2148268306,2147195309,307,4,13,44653
1345950027,5809,1008.2299804687500000,49.6795387268066400,678.9135742187500000,4.0032958984375000,53.8287315368652340,52,99,85,78,82,15302,2147762706,2147422857,2148010797,2147873225,2147642002,2147060882,2148265956,2147198226,136,5,13,15912
1345953627,5810,1005.5499877929688000,50.0929794311523440,679.3873901367188000,3.9875950813293457,53.7768211364746100,53,100,86,79,82,15302,2147761097,2147423186,2148007881,2147873929,2147643913,2147062226,2148262016,2147198628,128,5,13,55130
1345957227,5809,1013.9799804687500000,49.6153717041015600,677.0139160156250000,4.0662212371826170,53.8095703125000000,53,100,88,79,81,15294,2147760859,2147422710,2148006107,2147874806,2147648347,2147060754,2148263725,2147200859,210,5,13,10963
1345960827,5809,1014.0200195312500000,49.7806816101074200,676.6951293945312000,4.0767769813537600,53.7868804931640600,52,99,86,79,82,15295,2147755364,2147424969,2148005842,2147873298,2147641252,2147058861,2148261056,2147197458,2654,4,13,49529
1345964427,5807,1014.8800048828125000,49.3129005432128900,678.0507812500000000,4.0318779945373535,53.8700904846191400,52,97,90,80,82,15291,2147759561,2147421942,2148006610,2147875986,2147644635,2147065819,2148260278,2147198464,3228,4,13,23777
1345968027,5805,1025.0799560546875000,49.5283508300781250,677.1965942382812000,4.0601711273193360,53.8254890441894500,52,98,89,79,81,15292,2147759451,2147422948,2148008914,2147878573,2147644754,2147064786,2148262555,2147199616,3515,5,13,19312
1345971627,5808,1031.6999511718750000,49.9040718078613300,676.8917846679688000,4.0702629089355470,53.7686500549316400,52,101,90,80,82,15289,2147759707,2147421010,2148006162,2147875629,2147645558,2147058020,2148260297,2147200265,3464,4,14,38179
1345975227,5808,1016.8900146484375000,49.4288711547851560,676.8939819335938000,4.0701918601989750,53.8369407653808600,52,101,86,79,82,15288,2147759058,2147419136,2148007460,2147876489,2147644361,2147066395,2148260443,2147198272,3370,4,13,28803
1345978827,5806,1009.7100219726562000,49.9755897521972660,678.8267822265625000,4.0061678886413570,53.7819404602050800,52,98,91,79,82,15290,2147759268,2147422189,2148007021,2147876827,2147642523,2147067218,2148260361,2147197888,3526,4,13,51394
1345982427,5810,1005.2100219726562000,51.9909896850585940,679.7827148437500000,3.9744930267333984,53.5212211608886700,53,100,91,79,81,15287,2147758692,2147421211,2148007789,2147876525,2147644278,2147066761,2148261970,2147197083,223,4,13,24088
1345986027,5809,1014.0200195312500000,52.1446189880371100,679.1849975585938000,3.9943010807037354,53.4956398010253900,52,99,88,79,81,15288,2147762294,2147421787,2148010752,2147876059,2147647506,2147063341,2148263707,2147196781,374,5,13,44381
1345989627,5811,1013.1699829101562000,51.8189811706543000,679.2703857421875000,3.9914720058441160,53.5387687683105500,53,100,84,83,82,15287,2147758308,2147423305,2148009234,2147874944,2147646281,2147066102,2148261403,2147200365,320,4,13,53994
1345993227,5808,1010.7899780273438000,49.3512992858886700,678.8850708007812000,4.0042400360107420,53.8702812194824200,53,134,88,80,81,15287,2147760054,2147426038,2148010825,2147871890,2147646665,2147064137,2148259072,2147195520,3555,4,13,56143
1345996827,5803,1013.4500122070312000,49.5026702880859400,678.9534301757812000,4.0019741058349610,53.8504905700683600,52,98,86,79,81,15283,2147758902,2147420827,2148009316,2147873728,2147644480,2147062765,2148259821,2147200274,3480,4,13,27561
1346000427,5809,1017.2600097656250000,49.1034507751464840,678.9428100585938000,4.0023269653320310,53.9033699035644500,53,100,90,80,82,15284,2147759497,2147425517,2148009033,2147873883,2147643053,2147062409,2148259364,2147200905,196,5,13,16816
1346004027,5809,1013.5700073242188000,49.6370391845703100,679.4291992187500000,3.9862079620361330,53.8371696472168000,53,99,90,78,82,15282,2147756736,2147421906,2148009197,2147875922,2147645211,2147065216,2148261357,2147200548,3353,4,13,54073
1346007627,5810,1011.7899780273438000,49.8551597595214840,679.4146728515625000,3.9866890907287598,53.8115692138671900,53,98,89,79,82,15284,2147762285,2147420992,2148012461,2147872777,2147643638,2147063085,2148263186,2147197302,31,5,13,38882
1346010655,5810,1013.8599853515625000,51.0507011413574200,679.2484741210938000,3.9921948909759520,53.6457710266113300,52,98,89,78,82,15296,2147760310,2147422829,2148011044,2147875730,2147644388,2147065709,2148262436,2147199122,3491,4,13,59579
